Location: Hodgeman County Ambulance
(38.0844°N, 99.8949°W)
Time: 20:42:07
(UTC+00:00)

X-37B - Pass Details

Date: 26 September 2021
Orbit: 385 x 389 km, 45.0° (Epoch: 17 October)

Event Time Altitude Azimuth Distance (km) Brightness Sun altitude
Exits shadow 10:26:41 22° 33° (NNE) 896 2.9 -24.9°
Drops below altitude 10° 10:28:12 10° 51° (NE) 1,414 4.3 -24.6°
Sets 10:30:23 0° 61° (ENE) 2,271 5.8 -24.2°
